Regional Weather Roundup
Issued by NWS State College, PA

Home | Current Version | Previous Version | Text Only | Print | Product List | Glossary Off
Versions: 1 2 3 4 5 6 7 8 9 10 11 12 13 14 15 16 17 18 19 20 21 22 23 24 25 26 27 28 29 30 31 32 33 34 35 36 37 38 39 40 41 42 43 44 45 46 47 48 49 50

000
ASUS41 KCTP 010410
RWRCTP

REGIONAL WEATHER ROUNDUP
NATIONAL WEATHER SERVICE STATE COLLEGE PA
1200 AM EDT TUE SEP 01 2015

Note: "fair" indicates few or no clouds below 12,000 feet with no
significant weather and/or obstructions to visibility.

* = STATION THAT DOES NOT REPORT PRECIPITATION /E.G. RAIN...SNOW...ETC/
    THUNDER OR FOG.

PAZ002>004-007>009-013>016-020>023-029>032-010500-
WESTERN PENNSYLVANIA

CITY           SKY/WX    TMP DP  RH WIND       PRES   REMARKS
ERIE           CLEAR     68  63  84 S5        30.08R
MEADVILLE      CLEAR     69  63  81 CALM      30.12S
FRANKLIN*      CLEAR     66  64  94 W5        30.13F
NEW CASTLE     FAIR      67  67 100 CALM      30.11S FOG
BEAVER COUNTY  NOT AVBL
BUTLER*        CLEAR     70  66  88 CALM      30.13S
PITTSBURGH INT CLEAR     74  65  73 CALM      30.10S
PITTSBURGH     CLEAR     77  60  55 W6        30.10S
INDIANA*       PTCLDY    68  64  88 CALM      30.14S
LATROBE        NOT AVBL
WASHINGTON CO* CLEAR     64  63  94 CALM      30.12S
$$

PAZ004>006-010>012-017>019-024>028-033>037-041-042-045-046-049>053-010500-
CENTRAL PENNSYLVANIA

CITY           SKY/WX    TMP DP  RH WIND       PRES   REMARKS
BRADFORD       FOG       60  58  92 CALM      30.14S VSB 1
DUBOIS         CLEAR     68  64  87 CALM      30.12S FOG
CLEARFIELD     CLEAR     68  64  87 CALM      30.12R
JOHNSTOWN      CLEAR     69  60  73 SW5       30.15S
ALTOONA        CLEAR     67  64  90 S3        30.12S
STATE COLLEGE  CLEAR     69  66  89 CALM      30.09S
WILLIAMSPORT   CLEAR     71  68  90 CALM      30.03S FOG
SELINSGROVE    PTCLDY    70  68  93 CALM      30.04S FOG
FT INDIANTOWN  CLEAR     69  67  95 N2        30.04S
CAPITAL CITY   CLEAR     73  67  81 CALM      30.04S
HARRISBURG     NOT AVBL
YORK           NOT AVBL
$$

PAZ038>040-043-044-047-048-054-055-060>062-067>071-010500-
EASTERN PENNSYLVANIA

CITY           SKY/WX    TMP DP  RH WIND       PRES   REMARKS
SCRANTON       CLEAR     72  67  84 E6        30.05S
MOUNT POCONO   CLEAR     67  64  90 NW3       30.10S
ALLENTOWN      CLEAR     74  68  81 SW5       30.02S
QUAKERTOWN*    CLEAR     70  68  94 CALM      30.04F
READING        CLEAR     75  67  76 CALM      30.03S
LANCASTER      CLEAR     73  68  84 CALM      30.04F
COATESVILLE    CLEAR     73  70  88 W3        30.07S
POTTSTOWN      CLEAR     75  70  84 SW3       30.05S
BLUE BELL      CLEAR     75  68  78 CALM      30.03F
DOYLESTOWN     CLEAR     74  68  81 SW5       30.03S
WILLOW GROVE   NOT AVBL
NORTH PHILA    CLEAR     80  64  58 W9        30.04S
PHILADELPHIA   CLEAR     78  67  68 SW9       30.04S
$$


USA.gov is the U.S. government's official web portal to all federal, state and local government web resources and services.